Lakeview AWS, OR

3:19 AM PDT on April 27, 2017 (GMT -0700)
Lake County

Weather History for KLKV - December, 2013

Change the Weather History Date:

Sunday, December 15, 2013

  Actual Average Record
Temperature  
Mean Temperature 22 °F -  
Max Temperature 41 °F 41 °F 62 °F (1980)
Min Temperature 3 °F 21 °F -15 °F (1931)
Degree Days  
Heating Degree Days 43    
Moisture  
Dew Point 11 °F    
Average Humidity 78    
Maximum Humidity 100    
Minimum Humidity 45    
Precipitation  
Precipitation 0.00 in - - ()
Sea Level Pressure  
Sea Level Pressure 30.45 in    
Wind  
Wind Speed 2 mph (NNW)    
Max Wind Speed 9 mph    
Max Gust Speed -    
Visibility 10 miles    
Events      
Averages and records for this station are not official NWS values.
T = Trace of Precipitation, MM = Missing Value Source: NWS Daily Summary

Daily Weather History Graph

Daily Weather History Graph

Search for Another Location

Airport or City:

Trip Planner

Search our weather history database for the weather conditions in past years. The results will help you decide how hot, cold, wet, or windy it might be!

Date:

Astronomy

Dec. 15, 2013 Rise Set
Actual Time 7:23 AM PST 4:30 PM PST
Civil Twilight 6:51 AM PST 5:02 PM PST
Nautical Twilight 6:16 AM PST 5:37 PM PST
Astronomical Twilight 5:42 AM PST 6:11 PM PST
Moon 3:39 PM PST (12/15) 5:43 AM PST (12/15)
Length of Visible Light 10h 10m
Length of Day
9h 07m
Waxing Gibbous, 98% of the Moon is Illuminated
Dec 15
Waxing Gibbous
Dec 17
Full
Dec 25
Last Quarter
Jan 1
New
Jan 7
First Quarter

Hourly Weather History & Observations

Time (PST) Temp. Windchill Dew Point Humidity Pressure Visibility Wind Dir Wind Speed Gust Speed Precip Events Conditions
12:15 AM 10.4 °F - 10.4 °F 100% 30.49 in 1.2 mi Calm Calm - N/A   Mostly Cloudy
12:35 AM 8.6 °F 0.1 °F 6.8 °F 92% 30.49 in 10.0 mi NW 4.6 mph - N/A   Overcast
12:55 AM 8.6 °F - 1.4 °F 73% 30.49 in 10.0 mi Calm Calm - N/A   Mostly Cloudy
1:15 AM 8.6 °F - 8.6 °F 100% 30.49 in 10.0 mi Calm Calm - N/A   Clear
1:35 AM 10.4 °F - 8.6 °F 92% 30.48 in 10.0 mi Calm Calm - N/A   Clear
1:55 AM 10.4 °F 4.0 °F -4.0 °F 52% 30.48 in 10.0 mi NNW 3.5 mph - N/A   Clear
2:15 AM 8.6 °F -1.3 °F 1.4 °F 73% 30.48 in 10.0 mi NNW 5.8 mph - N/A   Clear
2:35 AM 8.6 °F 2.0 °F 8.6 °F 100% 30.48 in 10.0 mi NNW 3.5 mph - N/A   Clear
2:55 AM 10.4 °F 2.2 °F 6.8 °F 85% 30.48 in 10.0 mi NNW 4.6 mph - N/A   Clear
3:15 AM 6.8 °F -3.5 °F -2.2 °F 67% 30.48 in 10.0 mi NNE 5.8 mph - N/A   Clear
3:35 AM 6.8 °F -3.5 °F 1.4 °F 79% 30.47 in 10.0 mi NNW 5.8 mph - N/A   Clear
3:55 AM 6.8 °F -0.1 °F 6.8 °F 100% 30.47 in 10.0 mi NW 3.5 mph - N/A   Clear
4:15 AM 6.8 °F - 5.0 °F 92% 30.46 in 10.0 mi Calm Calm - N/A   Clear
4:35 AM 6.8 °F -0.1 °F -0.4 °F 72% 30.46 in 10.0 mi North 3.5 mph - N/A   Clear
4:55 AM 6.8 °F - -0.4 °F 72% 30.45 in 10.0 mi Calm Calm - N/A   Clear
5:15 AM 6.8 °F -0.1 °F 6.8 °F 100% 30.45 in 10.0 mi NW 3.5 mph - N/A   Clear
5:35 AM 6.8 °F - - N/A% 30.45 in 10.0 mi Calm Calm - N/A   Clear
5:55 AM 6.8 °F - 3.2 °F 85% 30.45 in 10.0 mi Calm Calm - N/A   Clear
6:15 AM 6.8 °F - -2.2 °F 67% 30.44 in 10.0 mi Calm Calm - N/A   Clear
6:35 AM 5.0 °F - -0.4 °F 78% 30.45 in 10.0 mi Calm Calm - N/A   Clear
6:55 AM 3.2 °F - 3.2 °F 100% 30.45 in 10.0 mi Calm Calm - N/A   Clear
7:15 AM 6.8 °F - 6.8 °F 100% 30.45 in 10.0 mi Calm Calm - N/A   Clear
7:35 AM 3.2 °F - 3.2 °F 100% 30.45 in 10.0 mi Calm Calm - N/A   Clear
7:55 AM 3.2 °F - 1.4 °F 92% 30.46 in 10.0 mi Calm Calm - N/A   Clear
8:15 AM 8.6 °F - -7.6 °F 48% 30.47 in 10.0 mi Calm Calm - N/A   Clear
8:35 AM 10.4 °F - 8.6 °F 92% 30.48 in 10.0 mi Calm Calm - N/A   Clear
8:55 AM 15.8 °F - 15.8 °F 100% 30.48 in 10.0 mi Calm Calm - N/A   Clear
9:15 AM 15.8 °F - 6.8 °F 68% 30.49 in 10.0 mi Calm Calm - N/A   Clear
9:35 AM 15.8 °F - 15.8 °F 100% 30.49 in 10.0 mi Calm Calm - N/A   Clear
9:55 AM 21.2 °F 16.4 °F 8.6 °F 58% 30.48 in 10.0 mi SE 3.5 mph - N/A   Clear
10:15 AM 21.2 °F 16.4 °F 21.2 °F 100% 30.48 in 10.0 mi SE 3.5 mph - N/A   Clear
10:35 AM 19.4 °F - 10.4 °F 68% 30.49 in 10.0 mi Calm Calm - N/A   Clear
10:55 AM 24.8 °F 20.5 °F 19.4 °F 80% 30.48 in 10.0 mi East 3.5 mph - N/A   Clear
11:15 AM 24.8 °F - 21.2 °F 86% 30.47 in 10.0 mi Calm Calm - N/A   Clear
11:35 AM 32.0 °F - 17.6 °F 55% 30.46 in 10.0 mi Calm Calm - N/A   Clear
11:55 AM 28.4 °F - 17.6 °F 64% 30.45 in 10.0 mi Calm Calm - N/A   Clear
12:15 PM 33.8 °F - 21.2 °F 60% 30.45 in 10.0 mi Calm Calm - N/A   Clear
12:35 PM 33.8 °F - 23.0 °F 65% 30.45 in 10.0 mi Calm Calm - N/A   Clear
12:55 PM 33.8 °F - 23.0 °F 65% 30.44 in 10.0 mi Calm Calm - N/A   Clear
1:15 PM 39.2 °F - 19.4 °F 45% 30.43 in 10.0 mi Calm Calm - N/A   Clear
1:35 PM 35.6 °F - 19.4 °F 52% 30.43 in 10.0 mi Calm Calm - N/A   Clear
1:55 PM 35.6 °F 32.8 °F 24.8 °F 65% 30.42 in 10.0 mi ESE 3.5 mph - N/A   Clear
2:15 PM 35.6 °F 32.8 °F 24.8 °F 65% 30.42 in 10.0 mi ESE 3.5 mph - N/A   Clear
2:35 PM 41.0 °F - 21.2 °F 45% 30.42 in 10.0 mi Calm Calm - N/A   Clear
2:55 PM 37.4 °F 34.9 °F 21.2 °F 52% 30.42 in 10.0 mi ENE 3.5 mph - N/A   Clear
3:15 PM 35.6 °F - 21.2 °F 56% 30.43 in 10.0 mi Calm Calm - N/A   Clear
3:35 PM 35.6 °F - 21.2 °F 56% 30.42 in 10.0 mi Calm Calm - N/A   Clear
3:55 PM 35.6 °F - 23.0 °F 60% 30.42 in 10.0 mi Calm Calm - N/A   Clear
4:15 PM 33.8 °F - 21.2 °F 60% 30.42 in 10.0 mi Calm Calm - N/A   Clear
4:35 PM 28.4 °F 21.2 °F 19.4 °F 69% 30.42 in 10.0 mi NNW 6.9 mph - N/A   Clear
4:55 PM 24.8 °F 19.1 °F 17.6 °F 74% 30.42 in 10.0 mi NW 4.6 mph - N/A   Clear
5:15 PM 24.8 °F 16.9 °F 15.8 °F 69% 30.41 in 10.0 mi NW 6.9 mph - N/A   Clear
5:35 PM 21.2 °F 14.9 °F 15.8 °F 80% 30.41 in 10.0 mi NW 4.6 mph - N/A   Clear
5:55 PM 17.6 °F 10.7 °F 15.8 °F 93% 30.42 in 10.0 mi North 4.6 mph - N/A   Clear
6:15 PM 17.6 °F 9.3 °F 12.2 °F 79% 30.42 in 10.0 mi NNE 5.8 mph - N/A   Clear
6:35 PM 15.8 °F 8.6 °F 14.0 °F 93% 30.42 in 10.0 mi NNW 4.6 mph - N/A   Clear
6:55 PM 15.8 °F 8.6 °F 8.6 °F 73% 30.42 in 10.0 mi NNW 4.6 mph - N/A   Clear
7:15 PM 15.8 °F - 15.8 °F 100% 30.43 in 10.0 mi Calm Calm - N/A   Clear
7:35 PM 15.8 °F - 8.6 °F 73% 30.43 in 10.0 mi Calm Calm - N/A   Clear
7:55 PM 14.0 °F - 12.2 °F 93% 30.44 in 10.0 mi Calm Calm - N/A   Clear
8:15 PM 12.2 °F - 5.0 °F 73% 30.44 in 10.0 mi Calm Calm - N/A   Clear
8:35 PM 12.2 °F - 12.2 °F 100% 30.45 in 10.0 mi Calm Calm - N/A   Clear
8:55 PM 12.2 °F - 8.6 °F 85% 30.44 in 10.0 mi Calm Calm - N/A   Clear
9:15 PM 12.2 °F 6.1 °F 12.2 °F 100% 30.45 in 10.0 mi North 3.5 mph - N/A   Clear
9:35 PM 10.4 °F -0.4 °F 3.2 °F 73% 30.45 in 10.0 mi NNW 6.9 mph - N/A   Clear
9:55 PM 12.2 °F 2.9 °F 12.2 °F 100% 30.46 in 10.0 mi NNW 5.8 mph - N/A   Clear
10:15 PM 10.4 °F 2.2 °F 10.4 °F 100% 30.46 in 10.0 mi NNW 4.6 mph - N/A   Clear
10:35 PM 10.4 °F 4.0 °F 1.4 °F 67% 30.46 in 10.0 mi NW 3.5 mph - N/A   Clear
10:55 PM 10.4 °F 4.0 °F 8.6 °F 92% 30.46 in 10.0 mi North 3.5 mph - N/A   Clear
11:15 PM 8.6 °F -1.3 °F 6.8 °F 92% 30.46 in 10.0 mi North 5.8 mph - N/A   Clear
11:35 PM 8.6 °F -4.7 °F 1.4 °F 73% 30.45 in 10.0 mi NNW 9.2 mph - N/A   Clear
11:55 PM 10.4 °F 0.8 °F 6.8 °F 85% 30.45 in 10.0 mi NNW 5.8 mph - N/A   Clear